Meadville, PA

8:21 AM EST on December 08, 2019 (GMT -0500)
Port Meadville

Weather History for KGKJ - October, 2019

Change the Weather History Date:

Thursday, October 10, 2019

  Actual Average Record
Temperature  
Mean Temperature 56 °F -  
Max Temperature 69 °F 62 °F 85 °F (1949)
Min Temperature 44 °F 41 °F 28 °F (1956)
Degree Days  
Heating Degree Days 8    
Growing Degree Days 6 (Base 50)    
Moisture  
Dew Point 41 °F    
Average Humidity 60    
Maximum Humidity 82    
Minimum Humidity 35    
Precipitation  
Precipitation 0.00 in - - ()
Sea Level Pressure  
Sea Level Pressure 30.23 in    
Wind  
Wind Speed 3 mph ()    
Max Wind Speed 7 mph    
Max Gust Speed -    
Visibility 10.0 miles    
Events      
Averages and records for this station are not official NWS values.
T = Trace of Precipitation, MM = Missing Value Source: Averaged Metar Reports

Daily Weather History Graph

Daily Weather History Graph

Search for Another Location

Airport or City:

Astronomy

Oct. 10, 2019 Rise Set
Actual Time 7:27 AM EDT 6:47 PM EDT
Civil Twilight 6:59 AM EDT 7:15 PM EDT
Nautical Twilight 6:27 AM EDT 7:47 PM EDT
Astronomical Twilight 5:54 AM EDT 8:19 PM EDT
Moon 5:52 PM EDT (10/10) 4:05 AM EDT (10/10)
Length of Visible Light 12h 16m
Length of Day
11h 20m
Waxing Gibbous, 91% of the Moon is Illuminated
Oct 10
Waxing Gibbous
Oct 13
Full
Oct 21
Last Quarter
Oct 27
New
Nov 4
First Quarter

Hourly Weather History & Observations

Time (EDT) Temp. Windchill Dew Point Humidity Pressure Visibility Wind Dir Wind Speed Gust Speed Precip Events Conditions
12:53 AM 52.0 °F - 39.0 °F 61% 30.24 in 10.0 mi Variable 3.5 mph - N/A   Clear
1:53 AM 51.1 °F - 37.9 °F 61% 30.24 in 10.0 mi Variable 4.6 mph - N/A   Clear
2:53 AM 48.0 °F - 39.0 °F 71% 30.24 in 10.0 mi East 5.8 mph - N/A   Clear
3:53 AM 48.9 °F - 39.9 °F 71% 30.24 in 10.0 mi Variable 3.5 mph - N/A   Clear
4:53 AM 48.0 °F - 39.9 °F 74% 30.25 in 10.0 mi Variable 4.6 mph - N/A   Clear
5:53 AM 46.0 °F 44.8 °F 39.0 °F 76% 30.26 in 10.0 mi East 3.5 mph - N/A   Clear
6:53 AM 44.1 °F 42.5 °F 39.0 °F 82% 30.28 in 10.0 mi East 3.5 mph - N/A   Clear
7:53 AM 44.1 °F 40.8 °F 39.0 °F 82% 30.29 in 10.0 mi East 5.8 mph - N/A   Clear
8:53 AM 48.0 °F - 41.0 °F 77% 30.30 in 10.0 mi East 5.8 mph - N/A   Clear
9:53 AM 52.0 °F - 41.0 °F 66% 30.30 in 10.0 mi Variable 6.9 mph - N/A   Clear
10:53 AM 55.9 °F - 42.1 °F 60% 30.28 in 10.0 mi East 6.9 mph - N/A   Clear
11:53 AM 60.1 °F - 42.1 °F 51% 30.27 in 10.0 mi East 5.8 mph - N/A   Clear
12:53 PM 64.0 °F - 41.0 °F 43% 30.25 in 10.0 mi Variable 4.6 mph - N/A   Clear
1:53 PM 66.0 °F - 37.9 °F 36% 30.22 in 10.0 mi Variable 3.5 mph - N/A   Clear
2:53 PM 69.1 °F - 39.9 °F 35% 30.21 in 10.0 mi East 3.5 mph - N/A   Clear
3:53 PM 68.0 °F - 39.9 °F 36% 30.20 in 10.0 mi SW 4.6 mph - N/A   Clear
4:53 PM 68.0 °F - 42.1 °F 39% 30.20 in 10.0 mi Calm Calm - N/A   Clear
5:53 PM 66.9 °F - 42.1 °F 40% 30.20 in 10.0 mi Calm Calm - N/A   Clear
6:53 PM 62.1 °F - 44.1 °F 52% 30.19 in 10.0 mi East 3.5 mph - N/A   Clear
7:53 PM 59.0 °F - 45.0 °F 60% 30.19 in 10.0 mi Calm Calm - N/A   Clear
8:53 PM 55.9 °F - 45.0 °F 67% 30.20 in 10.0 mi Calm Calm - N/A   Clear
9:53 PM 57.0 °F - 44.1 °F 62% 30.20 in 10.0 mi Variable 3.5 mph - N/A   Clear
10:53 PM 55.0 °F - 44.1 °F 67% 30.20 in 10.0 mi Calm Calm - N/A   Clear
11:53 PM 55.0 °F - 44.1 °F 67% 30.19 in 10.0 mi Calm Calm - N/A   Clear